Regional Weather Roundup
Issued by NWS Grand Forks, ND

Home | Current Version | Previous Version | Text Only | Print | Product List | Glossary On
Versions: 1 2 3 4 5 6 7 8 9 10 11 12 13 14 15 16 17 18 19 20 21 22 23 24 25 26 27 28 29 30 31 32 33 34 35 36 37 38 39 40 41 42 43 44 45 46 47 48 49 50
000
ASUS43 KFGF 261231
RWRFGF
NATIONAL WEATHER SERVICE EASTERN NORTH DAKOTA/GRAND FORKS ND
700 AM CDT TUE MAY 26 2015

 **SATELLITE DATA USED TO AUGMENT SKY COVER AT AUTOMATED STATIONS**
 *****  WEATHER ACROSS EASTERN NORTH DAKOTA  *****

CITY           SKY/WX    TMP DP  RH WIND       PRES   REMARKS
GRAND FORKS    MOSUNNY   55  51  86 S13       29.81S
6HR MIN TEMP:  51; 6HR MAX TEMP:  57;

GRAND FRKS AFB SUNNY     55  52  88 S9        29.82R
GRAND FRKS NWS   N/A     55 N/A N/A S5          N/A
DEVILS LAKE    SUNNY     59  48  67 W10       29.83R
6HR MIN TEMP:  55; 6HR MAX TEMP:  63;

FARGO          MOSUNNY   50  48  93 SW3       29.86S
WAHPETON ARPT  PTSUNNY   50  46  87 CALM      29.87S
$$

 ***** WEATHER ACROSS CENTRAL AND WESTERN NORTH DAKOTA  *****

CITY           SKY/WX    TMP DP  RH WIND       PRES   REMARKS
BISMARCK       CLEAR     51  48  89 W3        29.93R
6HR MIN TEMP:  51; 6HR MAX TEMP:  57;

MINOT          CLEAR     58  47  66 W13       29.87R
6HR MIN TEMP:  56; 6HR MAX TEMP:  62;

JAMESTOWN      MOSUNNY   53  51  93 S6        29.87R
6HR MIN TEMP:  51; 6HR MAX TEMP:  59;

MINOT AFB      CLEAR     57  54  88 W10       29.86R
GARRISON         N/A     54  47  77 W8        29.90R
WILLISTON      CLEAR     47  45  93 CALM      29.93R
6HR MIN TEMP:  42; 6HR MAX TEMP:  52;

DICKINSON      CLEAR     43  43 100 W5        29.94S FOG
6HR MIN TEMP:  41; 6HR MAX TEMP:  50;

HETTINGER      PTCLDY    40  39  97 W3        29.98R
6HR MIN TEMP:  38; 6HR MAX TEMP:  48;

$$

 *****  OTHER AIRPORT OBSERVATIONS IN OUR AREA  *****

CITY           SKY/WX    TMP DP  RH WIND       PRES   REMARKS
WALHALLA         N/A     63  48  59 W3        29.79R
GRAFTON AIRPOR FAIR      54  54 100 S8        29.81S
VALLEY CITY AR FAIR      57  57 100 SW8       29.86S
CANDO          FAIR      57  48  72 W10       29.84R
CAVALIER APRT  FAIR      55  55 100 S7        29.79S FOG
GWINNER        NOT AVBL
SHEYENNE NWR     N/A     45  45  99 SE2       29.95S
ROLLA          FAIR      63  45  51 NW7       29.85R
 ***** THE ABOVE OBSERVATIONS ARE NON NWS ARE NOT QUALITY
       CONTROLLED AND MAY MIS-REPORT RAIN FOR SNOW...
$$

  *****  WEATHER ACROSS NORTHERN MINNESOTA  *****

CITY           SKY/WX    TMP DP  RH WIND       PRES   REMARKS
FLAG ISLAND    SUNNY     54  52  94 S12       29.81S
WARROAD        SUNNY     55  52  88 S8        29.83S
ROSEAU         SUNNY     57  52  82 S12       29.82S
HALLOCK        SUNNY     57  52  82 S13       29.80S
THF RVR FALLS  SUNNY     55  48  76 S9        29.86R
6HR MIN TEMP:  50; 6HR MAX TEMP:  54;

BAUDETTE       SUNNY     52  49  89 SW6       29.85R
6HR MIN TEMP:  47; 6HR MAX TEMP:  52;

WASKISH        SUNNY     54  54 100 CALM      29.87S
CROOKSTON      SUNNY     57  50  77 S8        29.85S
STEPHEN NDAWN    N/A     57  50  77 S12         N/A
GREENBUSH NDAW   N/A     55  48  76 S10         N/A
$$
  *****  WEATHER ACROSS CENTRAL AND WEST MINNESOTA  *****

CITY           SKY/WX    TMP DP  RH WIND       PRES   REMARKS
FOSSTON        SUNNY     52  50  93 CALM      29.87F
BEMIDJI        MOSUNNY   47  47 100 CALM      29.88R FOG
PARK RAPIDS    PTSUNNY   51  48  89 N3        29.87R
6HR MIN TEMP:  46; 6HR MAX TEMP:  53;

ELBOW LAKE     FAIR      53  51  92 N5        29.86S
6HR MIN TEMP:  51; 6HR MAX TEMP:  54;

WADENA         CLOUDY    50  48  93 CALM      29.88R
DETROIT LAKES  PTSUNNY   50  48  93 CALM      29.88S
MOORHEAD       MOSUNNY   50  48  93 SE5       29.87S FOG
FERGUS FALLS   PTSUNNY   54  52  94 NE5       29.88S
MORRIS MN      CLOUDY    54  52  94 N10       29.84F
STAPLES        CLOUDY    52  50  93 N6        29.87S
$$
  *****  WEATHER ELSEWHERE ACROSS MINNESOTA  *****

CITY           SKY/WX    TMP DP  RH WIND       PRES   REMARKS
DULUTH         CLOUDY    53  51  93 NE7       29.86R
6HR MIN TEMP:  53; 6HR MAX TEMP:  54; 6HR PCP:  0.01;

INTRNTL FALLS  SUNNY     47  46  97 CALM      29.87R
6HR MIN TEMP:  41; 6HR MAX TEMP:  51;

ELY            PTSUNNY   54  52  94 CALM      29.88S
CLOQUET        CLOUDY    54  52  94 NE5       29.86R
WHEATON        CLOUDY    50  48  93 NW3       29.89S
BRAINERD       CLOUDY    54  52  93 NE7       29.86S
6HR MIN TEMP:  53; 6HR MAX TEMP:  54;

HIBBING        CLOUDY    52  50  93 CALM      29.87S
6HR MIN TEMP:  48; 6HR MAX TEMP:  54; 6HR PCP:  0.02;

ALEXANDRIA     CLOUDY    53  50  89 NE12      29.87S
6HR MIN TEMP:  51; 6HR MAX TEMP:  55;

SAINT CLOUD    CLOUDY    53  52  96 N8        29.83R
6HR MIN TEMP:  53; 6HR MAX TEMP:  57;

MINNEAPOLIS    CLOUDY    57  56  96 VRB5      29.82R FOG
6HR MIN TEMP:  57; 6HR MAX TEMP:  63;

$$

  *****  WEATHER ACROSS SOUTH DAKOTA  *****

CITY           SKY/WX    TMP DP  RH WIND       PRES   REMARKS
SIOUX FALLS    CLOUDY    55  52  89 N8        29.82R
6HR MIN TEMP:  54; 6HR MAX TEMP:  58; 6HR PCP: TRACE;

BROOKINGS      CLOUDY    54  48  82 N9        29.85S
WATERTOWN      CLOUDY    51  48  89 N10       29.85F
6HR MIN TEMP:  50; 6HR MAX TEMP:  52;

HURON          CLOUDY    52  49  89 N12       29.86F
6HR MIN TEMP:  52; 6HR MAX TEMP:  54;

SISSETON         N/A     50  48  93 NW8       29.86F
ABERDEEN       PTCLDY    49  47  93 W5        29.89S
6HR MIN TEMP:  45; 6HR MAX TEMP:  55;

MITCHELL       CLOUDY    53  50  89 N9        29.86S
PIERRE         MOCLDY    52  51  97 NW9       29.92R
6HR MIN TEMP:  50; 6HR MAX TEMP:  56;

MOBRIDGE       PTCLDY    53  53 100 NW5       29.91R
RAPID CITY     CLOUDY    52  51  97 E3        29.98R
6HR MIN TEMP:  50; 6HR MAX TEMP:  53;

$$

  *****  SOME WEATHER IN NEARBY STATES *****

CITY           SKY/WX    TMP DP  RH WIND       PRES   REMARKS
GLASGOW MT     CLEAR     51  45  79 E9        29.90S
6HR MIN TEMP:  50; 6HR MAX TEMP:  53;

GREAT FALLS MT LGT RAIN  52  49  89 E5        29.92S
6HR MIN TEMP:  50; 6HR MAX TEMP:  52; 6HR PCP:  0.07;

CHEYENNE WY    PTCLDY    44  37  76 W9        30.03S
6HR MIN TEMP:  41; 6HR MAX TEMP:  46;

SCOTTSBLUFF NE CLOUDY    47  47 100 W6        30.00R
6HR MIN TEMP:  45; 6HR MAX TEMP:  50;

OMAHA NE       CLOUDY    61  59  93 S6        29.78R
6HR MIN TEMP:  61; 6HR MAX TEMP:  64; 6HR PCP: TRACE;

DES MOINES IA  RAIN      62  59  90 N8        29.77S FOG
6HR MIN TEMP:  62; 6HR MAX TEMP:  63; 6HR PCP:  0.72;

DAVENPORT IA   CLOUDY    69  65  86 S13       29.82R
6HR MIN TEMP:  68; 6HR MAX TEMP:  70; 6HR PCP:  0.03;

CHICAGO IL     CLOUDY    67  64  90 S13       29.94R
6HR MIN TEMP:  64; 6HR MAX TEMP:  71;

EAU CLAIRE WI  PTSUNNY   61  59  93 NE3       29.81R
6HR MIN TEMP:  55; 6HR MAX TEMP:  61;

LA CROSSE WI   PTSUNNY   63  59  87 E5        29.82R
6HR MIN TEMP:  61; 6HR MAX TEMP:  70; 6HR PCP:  0.05;

$$

  *****  SOME NATIONAL WEATHER *****

CITY           SKY/WX    TMP DP  RH WIND       PRES   REMARKS
LA GUARDIA NY  MOSUNNY   70  57  63 SW8G17    30.22R
6HR MIN TEMP:  67; 6HR MAX TEMP:  70;

RALEIGH NC     MOSUNNY   70  66  87 SW3       30.32R
6HR MIN TEMP:  65; 6HR MAX TEMP:  70;

ATLANTA GA     CLOUDY    72  67  84 SE8       30.23R
6HR MIN TEMP:  70; 6HR MAX TEMP:  72;

NEW ORLEANS LA LGT RAIN  67  62  84 N12       30.14F
6HR MIN TEMP:  66; 6HR MAX TEMP:  79; 6HR PCP:  1.28;

OKLAHOMA CITY  FOG       57  56  96 S6        29.95R VSB<1/4
6HR MIN TEMP:  52; 6HR MAX TEMP:  57;

ALBUQUERQUE NM CLEAR     50  46  86 CALM      30.12R
6HR MIN TEMP:  49; 6HR MAX TEMP:  53;

SALT LAKE CITY MOCLDY    58  48  69 NE5       29.99R
6HR MIN TEMP:  56; 6HR MAX TEMP:  60; 6HR PCP: TRACE;



USA.gov is the U.S. government's official web portal to all federal, state and local government web resources and services.